EHI
0 0 0 0 0 0 0 0 0 0 0 0 0 0 0 0 0 0 0 0 3 9 13 16 19 16 11 9 10 12 13 14 12 9 6 4 3 3 3 3 2 1 1 0 0 0 0 0 0
0 0 0 0 0 0 0 0 0 0 0 0 0 0 0 0 0 0 0 1 4 10 13 16 19 17 12 9 8 9 11 14 13 10 6 3 3 3 4 3 2 2 2 1 0 0 0 0 0
0 0 0 0 0 0 0 0 0 0 0 0 0 0 0 0 0 0 0 1 5 10 13 15 19 18 14 9 7 7 9 11 11 9 6 3 2 3 4 3 2 2 2 2 0 0 0 0 0
0 0 0 0 0 0 0 0 0 0 0 0 0 0 0 0 0 0 0 1 6 10 12 15 19 19 15 9 6 6 7 8 8 7 6 4 2 2 2 1 1 1 1 1 0 0 0 0 0
0 0 0 0 0 0 0 0 0 0 0 0 0 0 0 0 0 0 0 1 6 10 12 15 20 20 15 9 6 5 6 6 7 6 5 4 2 1 1 0 0 0 0 0 0 0 0 0 0
0 0 0 0 0 0 0 0 0 0 0 0 0 0 0 0 0 0 0 1 5 10 13 15 18 19 15 9 6 6 6 6 6 6 5 4 2 1 0 0 0 0 0 0 0 0 0 0 0
0 0 0 0 0 0 0 0 0 0 0 0 0 0 0 0 0 2 3 4 6 10 13 14 16 16 12 7 4 4 5 5 4 4 4 3 2 1 0 0 0 0 0 0 0 0 0 0 0
0 0 0 0 0 0 0 0 0 0 0 0 0 0 0 0 1 4 7 8 8 10 12 14 14 13 9 6 3 2 2 2 2 1 1 1 1 1 0 0 0 0 0 0 0 0 0 0 0
0 0 0 0 0 0 0 0 0 0 0 0 0 0 0 0 2 6 9 9 9 9 11 13 14 13 10 6 4 2 1 1 0 0 0 0 0 0 0 0 0 0 0 0 0 0 0 0 0
0 0 0 0 0 0 0 0 0 0 0 0 0 0 0 1 3 5 7 8 7 7 7 9 11 12 11 8 6 5 4 2 1 0 0 0 0 0 0 0 0 0 0 0 0 0 0 0 0
0 0 0 0 0 0 0 0 0 0 0 0 0 0 0 1 3 4 4 5 4 4 4 6 8 10 11 10 8 7 6 5 2 1 1 0 0 0 0 0 0 0 0 0 0 0 0 0 0
0 0 0 0 0 0 0 0 0 0 0 0 0 0 0 1 2 3 3 2 3 4 3 4 5 8 10 11 9 8 7 6 5 3 2 1 0 0 0 0 0 0 0 0 0 0 0 0 0
0 0 0 0 0 0 0 0 0 0 0 0 0 0 0 1 1 2 2 1 2 3 3 2 3 6 8 9 9 8 7 6 6 4 2 1 0 0 0 0 0 0 0 0 0 0 0 0 0
0 0 0 0 0 0 0 0 0 0 0 0 0 0 0 0 0 1 1 1 2 3 2 1 1 3 6 7 8 8 8 7 6 4 2 1 0 0 0 0 0 0 0 0 0 0 0 0 0
0 0 0 0 0 0 0 0 0 0 0 0 0 0 0 0 0 0 0 1 2 3 2 1 0 2 4 6 7 8 8 7 5 3 1 0 0 0 0 0 0 0 0 0 0 0 0 0 0
0 0 0 0 0 0 0 0 0 0 0 0 0 0 0 0 0 0 0 1 2 3 1 0 0 0 2 4 5 7 7 6 4 2 0 0 0 0 0 0 0 0 0 0 0 0 0 0 0
0 0 0 0 0 0 0 0 0 0 0 0 0 0 0 0 0 0 0 1 2 2 1 0 0 0 0 2 4 5 5 4 3 1 0 0 0 0 0 0 0 0 0 0 0 0 0 0 0
0 0 0 0 0 0 0 0 0 0 0 0 0 0 0 0 0 0 0 1 2 2 1 0 0 0 0 1 2 3 3 2 2 1 0 0 0 0 0 0 0 0 0 0 0 0 0 0 0
0 0 0 0 0 0 0 0 0 0 0 0 0 0 0 0 0 0 0 1 2 1 0 0 0 0 0 0 1 1 1 1 1 0 0 0 0 0 0 0 0 0 0 0 0 0 0 0 0
0 0 0 0 0 0 0 0 0 0 0 0 0 0 0 0 0 0 0 1 1 0 0 0 0 0 0 0 0 0 0 0 0 0 0 0 0 0 0 0 0 0 0 0 0 0 0 0 0
0 0 0 0 0 0 0 0 0 0 0 0 0 0 0 0 0 0 0 0 0 0 0 0 0 0 0 0 0 0 0 0 0 0 0 0 0 0 0 0 0 0 0 0 0 0 0 0 0
0 0 0 0 0 0 0 0 0 0 0 0 0 0 0 0 0 0 0 0 0 0 0 0 0 0 0 0 0 0 0 0 0 0 0 0 0 0 0 0 0 0 0 0 0 0 0 0 0
0 0 0 0 0 0 0 0 0 0 0 0 0 0 0 0 0 0 0 0 0 0 0 0 0 0 0 0 0 0 0 0 0 0 0 0 0 0 0 0 0 0 0 0 0 0 0 0 0
0 0 0 0 0 0 0 0 0 0 0 0 0 0 0 0 0 0 0 0 0 0 0 0 0 0 0 0 0 0 0 0 0 0 0 0 0 0 0 0 0 0 0 0 0 0 0 0 0
0 0 0 0 0 0 0 0 0 0 0 0 0 0 0 0 0 0 0 0 0 0 0 0 0 0 0 0 0 0 0 0 0 0 0 0 0 0 0 0 0 0 0 0 0 0 0 0 0
0 0 0 0 0 0 0 0 0 0 0 0 0 0 0 0 0 0 0 0 0 0 0 0 0 0 0 0 0 0 0 0 0 0 0 0 0 0 0 0 0 0 0 0 0 0 0 0 0
0 0 0 0 0 0 0 0 0 0 0 0 0 0 0 0 0 0 0 0 0 0 0 0 0 0 0 0 0 0 0 0 0 0 0 0 0 0 0 0 0 0 0 0 0 0 0 0 0
0 0 0 0 0 0 0 0 0 0 0 0 0 0 0 0 0 0 0 0 0 0 0 0 0 0 0 0 0 0 0 0 0 0 0 0 0 0 0 0 0 0 0 0 0 0 0 0 0
0 0 0 0 0 0 0 0 0 0 0 0 0 0 0 0 0 0 0 0 0 0 0 0 0 0 0 0 0 0 0 0 0 0 0 0 0 0 0 0 0 0 0 0 0 0 0 0 0
0 0 0 0 0 0 0 0 0 0 0 0 0 0 0 0 0 0 0 0 0 0 0 0 0 0 0 0 0 0 0 0 0 0 0 0 0 0 0 0 0 0 0 0 0 0 0 0 0
Wind_Speed
5 3 3 5 7 6 1 2 2 1 0 0 1 3 4 3 3 2 1 2 2 3 3 4 7 8 8 8 7 8 8 8 9 9 8 8 8 7 7 6 7 7 8 8 8 8 9 9 10
1 2 5 6 6 2 3 2 2 2 1 1 2 3 4 2 1 2 1 2 1 3 3 4 7 7 8 8 7 7 7 7 8 8 8 7 7 7 7 6 7 7 8 8 8 8 8 8 9
2 5 6 6 4 5 3 1 2 1 1 1 2 3 2 1 2 0 2 1 2 3 2 3 7 7 7 7 7 7 6 7 7 7 7 6 6 7 7 7 7 6 7 7 7 8 8 8 8
3 5 6 5 2 3 2 1 1 1 3 3 3 3 2 3 3 2 2 2 3 3 2 2 6 7 7 7 7 6 6 6 6 6 6 6 6 6 6 6 7 7 7 7 7 7 7 8 8
5 5 5 2 2 2 1 2 1 1 2 3 2 2 1 4 5 4 3 3 4 3 3 2 5 6 6 6 6 6 6 6 6 6 6 6 6 5 6 6 6 6 7 7 6 7 7 7 7
5 5 4 2 2 2 2 2 1 2 2 2 2 2 0 4 7 5 3 3 3 4 4 3 4 5 5 5 5 6 5 5 5 5 5 5 5 5 5 5 5 5 6 6 6 6 7 7 7
5 4 3 3 1 1 2 2 2 1 2 2 1 2 2 4 5 4 4 4 4 5 4 4 4 4 4 4 4 5 5 4 5 5 5 5 5 5 5 5 5 5 5 5 6 6 6 7 7
4 5 2 1 2 1 3 2 2 2 1 2 2 3 2 4 4 4 4 5 4 5 4 4 4 4 3 2 3 4 4 5 5 5 5 5 5 5 5 4 4 4 5 5 5 5 6 6 7
4 5 2 3 3 1 2 2 3 2 3 3 3 2 3 3 4 5 5 6 5 4 4 3 4 4 3 2 3 3 4 4 4 4 4 4 3 2 3 4 5 4 4 4 5 5 6 6 5
5 3 3 1 2 1 1 2 2 3 4 4 4 5 5 4 4 4 4 3 3 4 3 3 3 3 3 3 2 2 2 2 2 2 2 2 2 2 3 3 4 4 5 4 4 5 5 4 2
3 3 1 1 0 1 1 2 3 3 3 3 3 5 5 5 4 3 2 2 2 3 3 3 2 2 2 2 2 2 1 2 2 2 2 2 2 2 2 1 2 2 3 2 3 3 2 2 2
3 1 1 1 2 2 1 1 3 3 1 2 2 3 3 4 4 3 3 4 4 4 4 3 2 2 2 2 1 1 1 1 1 1 2 2 1 1 1 1 1 1 1 1 2 1 2 2 2
2 1 2 2 3 3 4 3 2 3 3 4 6 7 6 5 5 5 5 5 5 5 5 4 3 2 1 1 1 1 1 1 1 1 1 1 1 1 1 0 1 1 1 1 1 1 2 2 2
1 2 2 3 3 2 3 2 3 3 3 6 8 7 6 6 6 7 8 7 7 6 6 5 3 2 1 1 1 1 1 1 1 1 1 1 1 1 1 0 0 0 0 1 1 1 1 1 1
2 3 4 3 2 1 2 4 3 3 4 6 7 6 7 7 7 7 7 7 6 6 6 6 4 3 2 1 1 0 1 1 0 0 1 1 1 1 1 1 0 0 0 1 1 1 1 1 1
3 3 3 3 3 3 2 1 3 4 4 6 6 6 6 6 6 6 7 7 7 6 6 6 5 4 3 2 1 1 0 0 0 0 0 0 0 1 1 1 1 0 0 1 1 1 1 1 1
5 2 2 4 4 3 3 1 3 5 5 5 5 5 6 7 8 8 8 7 7 6 6 7 7 5 4 3 1 1 0 0 0 0 0 1 0 0 1 1 1 1 1 1 1 1 1 1 1
2 1 2 3 3 3 1 1 3 4 5 4 5 5 6 7 8 8 8 7 7 6 6 7 7 6 5 3 2 1 1 1 1 0 1 1 1 1 1 1 1 1 1 1 1 1 1 1 1
2 1 3 4 3 2 1 2 3 3 4 5 6 6 6 6 6 7 8 7 7 8 8 8 8 7 5 3 3 2 2 1 1 1 1 1 1 1 1 1 1 1 2 2 2 2 1 1 1
1 1 3 4 3 2 1 2 1 2 3 3 4 5 6 7 9 10 9 8 8 8 8 8 8 7 5 4 3 2 3 2 2 1 1 2 2 2 2 2 2 2 2 2 2 2 1 1 1
2 1 3 4 4 2 1 3 1 1 3 4 5 4 5 7 8 9 10 8 7 8 8 7 7 7 6 6 4 3 3 2 1 2 2 2 2 2 2 2 2 2 3 3 3 3 3 2 1
3 2 3 3 1 3 0 4 3 1 2 4 6 6 6 6 7 8 9 9 8 8 7 7 7 7 6 5 4 4 3 3 3 3 3 3 2 2 2 2 2 3 3 3 4 4 3 3 3
3 4 3 2 2 2 1 3 5 1 2 4 4 5 6 6 7 7 8 8 7 7 6 6 7 7 7 5 5 4 4 4 4 3 3 3 2 2 2 2 2 3 3 3 4 3 3 3 4
1 3 2 3 2 2 3 4 5 1 2 3 3 5 6 6 7 7 7 7 7 7 6 7 7 7 7 6 5 4 5 5 5 4 4 3 2 2 3 3 3 3 3 3 4 4 5 4 4
4 4 4 5 3 5 1 2 6 1 1 1 2 4 5 5 6 7 9 9 9 9 8 7 8 8 8 7 6 5 5 5 5 4 4 4 3 3 3 3 3 3 3 3 3 4 4 4 5
1 3 3 3 4 5 3 5 4 0 2 2 2 3 4 5 6 7 7 7 8 9 9 9 9 8 8 8 7 6 5 4 4 4 5 5 4 4 4 3 3 3 3 3 3 3 4 4 4
1 1 2 3 1 4 6 4 4 1 3 4 5 5 5 6 6 7 7 7 7 8 9 8 9 9 8 8 8 6 6 6 5 5 5 4 4 4 3 3 3 3 3 3 3 3 4 3 4
1 4 3 2 1 5 6 5 4 2 3 5 5 6 7 7 7 7 7 7 6 6 7 7 7 8 8 8 7 7 7 7 6 5 5 5 5 4 3 3 3 3 3 3 4 4 4 4 3
2 2 2 2 2 3 5 7 2 2 2 3 4 5 6 7 7 7 7 7 6 6 7 7 8 8 8 8 8 8 7 7 6 5 5 5 5 4 3 3 3 3 3 3 3 4 4 4 4
2 3 4 2 4 3 3 8 1 0 1 2 4 5 6 6 6 6 6 7 7 8 8 8 8 9 9 8 8 8 8 7 7 6 6 6 5 4 4 3 3 3 3 4 4 4 4 4 5
Wind_Direction
4 38 60 55 55 51 230 253 231 277 236 330 71 105 121 126 140 157 332 46 81 133 151 139 127 124 120 113 107 100 95 91 89 89 88 89 90 95 98 97 93 95 96 96 96 96 95 95 97
3 45 52 58 85 91 268 254 215 230 206 91 54 72 74 51 16 63 10 343 78 130 129 125 123 122 120 114 109 104 99 95 91 87 85 86 86 86 90 91 92 92 91 90 93 95 97 99 101
57 54 77 74 109 176 207 224 205 297 358 64 60 47 73 25 357 1 320 347 83 108 106 123 125 123 119 116 114 110 104 98 94 91 88 88 88 86 83 83 85 87 89 89 92 93 96 98 103
67 47 56 75 173 220 226 280 274 338 21 37 83 51 36 28 347 330 6 70 89 73 68 113 121 124 120 118 115 113 110 103 98 95 92 91 90 90 83 76 77 78 86 93 95 95 98 96 99
58 73 65 53 252 271 285 309 327 55 20 15 70 90 11 6 10 29 39 70 90 67 49 85 105 117 120 120 118 116 111 106 102 99 97 93 91 89 83 79 76 77 84 92 96 97 100 100 97
57 68 93 204 250 291 331 327 42 46 21 17 56 89 354 13 18 14 28 54 73 72 54 52 81 96 107 112 117 115 110 105 100 94 90 88 87 86 82 81 78 80 84 90 95 98 99 98 95
101 100 152 183 224 312 334 347 63 38 26 346 8 97 324 3 2 10 28 48 52 52 51 48 51 63 75 87 100 104 103 99 92 85 80 76 72 74 74 73 75 81 86 88 92 94 96 93 91
113 104 118 180 188 267 332 22 45 47 350 357 55 86 315 325 355 30 39 41 45 44 42 43 42 47 52 56 72 79 88 88 83 76 70 70 69 67 63 60 63 75 80 85 88 92 93 88 86
77 82 178 198 187 240 359 34 1 20 64 36 43 43 331 6 41 47 34 26 23 26 27 32 35 37 39 45 50 58 63 69 73 70 66 67 69 70 64 54 52 54 66 77 86 88 88 82 79
72 134 207 204 177 155 24 44 3 38 25 9 4 6 16 42 57 55 38 23 9 357 358 17 29 32 36 39 41 43 48 56 64 66 67 64 64 57 59 50 49 52 57 64 78 83 82 71 66
81 153 185 352 32 106 66 37 20 68 19 334 329 341 10 32 40 37 17 0 337 340 346 356 14 32 47 39 44 33 36 38 54 65 67 69 70 62 55 58 46 43 50 58 64 64 65 73 74
83 27 18 342 1 34 50 65 43 53 346 348 10 29 40 36 26 10 355 345 345 348 339 344 353 22 42 50 55 51 45 43 37 49 76 88 83 68 58 59 36 38 35 59 65 68 73 80 81
71 22 8 12 27 43 61 64 82 31 353 27 44 44 39 29 10 1 358 355 353 345 338 333 343 350 22 49 30 42 32 40 36 26 61 91 107 112 90 63 58 44 47 68 80 81 79 89 85
78 55 17 4 10 13 65 16 56 352 5 42 46 41 33 27 15 10 6 358 351 341 335 334 334 329 360 30 16 16 15 17 40 22 21 80 112 132 137 116 87 54 81 94 105 116 106 109 107
63 47 16 7 5 7 59 25 19 342 25 41 38 34 28 21 16 10 359 353 346 339 339 340 333 342 336 339 338 14 353 8 30 345 344 46 99 140 142 153 159 241 199 117 98 90 89 96 105
42 42 4 343 10 349 73 285 5 5 42 34 26 23 17 13 11 2 359 353 350 350 350 346 344 344 333 319 316 325 317 352 346 310 301 342 72 122 148 179 197 202 149 131 127 121 105 88 102
34 31 306 321 4 11 74 236 347 9 49 38 18 14 12 7 7 4 0 354 352 355 355 353 352 346 334 327 319 310 298 307 306 309 294 294 255 190 178 202 213 175 145 148 155 121 136 132 111
276 274 278 292 333 12 45 264 350 15 53 37 15 11 12 7 356 356 357 357 357 359 2 1 359 354 345 342 339 329 328 303 310 297 294 292 264 251 210 207 205 176 160 168 155 151 130 156 159
186 206 270 279 319 2 218 259 334 12 39 29 17 12 6 356 350 358 359 359 3 7 8 4 1 356 358 354 343 317 290 275 279 289 297 283 270 253 229 224 203 195 189 195 178 153 146 167 153
43 283 287 299 339 330 247 256 323 37 39 37 27 13 -0 355 357 359 1 4 4 4 2 359 357 353 353 346 322 307 296 268 254 267 283 278 271 254 237 213 212 207 197 198 192 166 157 202 180
334 232 263 284 332 353 328 288 224 26 51 40 31 16 6 2 355 352 355 356 359 2 357 351 347 346 347 348 344 343 346 331 323 311 297 285 270 261 261 235 217 207 197 203 205 195 184 193 237
284 284 288 285 321 287 241 283 256 236 6 18 12 5 359 355 353 353 353 353 355 351 348 347 345 347 348 353 357 356 342 320 306 298 285 282 265 259 263 253 230 214 210 207 210 209 199 182 201
255 310 294 264 204 285 280 242 281 49 329 335 345 350 349 350 350 350 350 346 347 346 347 344 344 349 350 350 348 347 335 317 315 315 293 283 270 255 254 251 239 230 223 213 212 212 208 199 198
324 5 22 47 85 271 234 197 276 240 272 303 325 339 343 347 347 346 347 349 349 350 353 352 351 348 347 346 341 339 329 324 320 317 305 290 277 264 256 256 240 236 230 216 214 215 216 215 208
40 55 12 353 352 261 254 210 253 260 328 301 308 325 336 344 347 349 350 351 351 352 350 350 350 345 344 341 336 326 315 310 304 299 289 292 287 277 258 262 249 242 240 229 215 215 222 216 208
348 129 155 242 262 291 306 241 249 95 21 15 359 341 348 347 346 345 343 344 345 346 347 349 345 340 339 337 331 324 315 308 305 303 294 279 275 272 260 253 252 249 244 234 218 221 226 220 214
99 138 163 148 279 279 274 286 287 93 14 6 3 359 349 342 341 338 338 343 344 344 344 343 338 335 335 334 330 326 325 319 309 303 295 287 286 289 270 257 253 248 241 231 218 224 224 220 218
108 141 95 123 259 278 288 272 266 274 315 337 345 341 336 338 339 338 337 338 337 336 336 338 336 334 331 330 331 330 326 322 314 311 308 304 299 296 283 267 257 251 248 242 225 224 217 214 223
64 88 109 146 189 216 282 277 243 229 252 292 312 323 327 332 336 334 334 335 334 337 337 338 339 339 337 335 331 327 324 322 320 316 311 308 306 297 285 264 257 248 243 246 238 227 216 210 216
161 172 148 174 250 212 235 271 340 145 306 308 313 324 331 331 332 334 335 339 344 343 341 342 339 337 334 332 331 327 324 325 323 318 316 311 307 301 289 275 260 256 246 238 237 232 221 213 215